Kingman, Arizona, United States (86401)
Lat: 35.19N, Lon: 114.05W
Wx Zone: AZZ003
Local Info
Past Weather Observations for Thursday, February 11, 2016

NOTE: This archive is for the closest National Weather Service station to Kingman. Information may differ from the station used for current weather conditions.

Click here for Long-term Archive

Time Weather Temperature Dewpoint Humidity Pressure Winds Precip Visibility
23:51
Clear
43°F / 6°C 25°F / -4°C 49% 30.27 in
(1025 mb)
Calm -
22:51
Clear
41°F / 5°C 27°F / -3°C 57% 30.27 in
(1025 mb)
Calm -
21:51
Clear
45°F / 7°C 27°F / -3°C 49% 30.27 in
(1025 mb)
SE 5.8 mph
(SE 9 kph)
-
20:51
Clear
45°F / 7°C 27°F / -3°C 49% 30.27 in
(1025 mb)
Calm -
19:51
Clear
46°F / 8°C 27°F / -3°C 46% 30.24 in
(1024 mb)
SE 3.5 mph
(SE 6 kph)
-
18:51
Clear
57°F / 14°C 25°F / -4°C 29% 30.24 in
(1024 mb)
Calm -
17:51
Clear
68°F / 20°C 27°F / -3°C 21% 30.24 in
(1024 mb)
NNE 4.6 mph
(NNE 7 kph)
-
16:51
Clear
73°F / 23°C 21°F / -6°C 14% 30.21 in
(1023 mb)
N 5.8 mph
(N 9 kph)
-
15:51
Clear
73°F / 23°C 21°F / -6°C 14% 30.21 in
(1023 mb)
N 4.6 mph
(N 7 kph)
-
14:51
Clear
73°F / 23°C 23°F / -5°C 15% 30.21 in
(1023 mb)
N 5.8 mph
(N 9 kph)
-
13:51
Clear
72°F / 22°C 23°F / -5°C 16% 30.24 in
(1024 mb)
N 5.8 mph
(N 9 kph)
-
12:51
Clear
70°F / 21°C 25°F / -4°C 18% 30.24 in
(1024 mb)
N 6.9 mph
(N 11 kph)
-
11:51
Clear
64°F / 18°C 27°F / -3°C 24% 30.27 in
(1025 mb)
NNE 9.2 mph
(NNE 15 kph)
-
10:51
Clear
61°F / 16°C 25°F / -4°C 25% 30.3 in
(1026 mb)
N 5.8 mph
(N 9 kph)
-
09:51
Clear
55°F / 13°C 25°F / -4°C 31% 30.3 in
(1026 mb)
NE 6.9 mph
(NE 11 kph)
-
08:51
Clear
50°F / 10°C N/A N/A 30.27 in
(1025 mb)
E 5.8 mph
(E 9 kph)
-
07:51
Clear
34°F / 1°C N/A N/A 30.27 in
(1025 mb)
E 3.5 mph
(E 6 kph)
-
06:51
Clear
32°F / 0°C N/A N/A 30.27 in
(1025 mb)
Calm -
05:51
Clear
34°F / 1°C N/A N/A 30.24 in
(1024 mb)
Calm -
04:51
Clear
39°F / 4°C N/A N/A 30.24 in
(1024 mb)
SW 4.6 mph
(SW 7 kph)
-
03:51
Clear
36°F / 2°C N/A N/A 30.24 in
(1024 mb)
ESE 3.5 mph
(ESE 6 kph)
-
02:51
Clear
37°F / 3°C N/A N/A 30.24 in
(1024 mb)
Calm -
01:51
Clear
39°F / 4°C N/A N/A 30.27 in
(1025 mb)
Calm -
00:51
Clear
43°F / 6°C N/A N/A 30.27 in
(1025 mb)
Calm -
Time Weather Temperature Dewpoint Humidity Pressure Winds Precip Visibility


Weather for websites

WeatherForYou.com, LLC is not responsible for any damages or problems caused by this service. Current weather conditions are obtained from the closest station including government and personal stations which may have varying degrees of accuracy. Weather forecasts are derived from the NOAA NDFD. Like all things, this site belongs to Jesus Christ... He just trusts us to maintain it. If you have any questions or comments email webmaster@weatherforyou.com

Copyright © 2016, WeatherForYou.com LLC. All rights reserved.